TimeEST,TemperatureF,Dew PointF,Humidity,Sea Level PressureIn,VisibilityMPH,Wind Direction,Wind SpeedMPH,Gust SpeedMPH,PrecipitationIn,Events,Conditions,WindDirDegrees,DateUTC
12:56 AM,51.1,36.0,56,30.16,10.0,NNE,5.8,-,N/A,,Overcast,30,2012-12-07 05:56:00
1:56 AM,50.0,36.0,59,30.15,10.0,NNE,5.8,-,N/A,,Overcast,30,2012-12-07 06:56:00
2:56 AM,51.1,36.0,56,30.14,10.0,NE,5.8,-,N/A,,Overcast,50,2012-12-07 07:56:00
3:56 AM,51.1,36.0,56,30.12,10.0,NNE,5.8,-,N/A,,Overcast,20,2012-12-07 08:56:00
4:56 AM,51.1,37.9,61,30.12,10.0,NE,5.8,-,N/A,,Overcast,40,2012-12-07 09:56:00
5:56 AM,51.1,37.9,61,30.12,10.0,NE,6.9,-,N/A,,Overcast,50,2012-12-07 10:56:00
6:56 AM,51.1,39.0,63,30.12,10.0,NE,5.8,-,N/A,,Overcast,40,2012-12-07 11:56:00
7:56 AM,51.1,39.0,63,30.12,10.0,NNE,6.9,-,N/A,,Overcast,20,2012-12-07 12:56:00
8:56 AM,50.0,42.1,74,30.13,10.0,NNE,4.6,-,0.00,,Overcast,20,2012-12-07 13:56:00
9:56 AM,52.0,43.0,71,30.14,10.0,North,3.5,-,0.00,,Overcast,10,2012-12-07 14:56:00
10:56 AM,54.0,43.0,66,30.12,10.0,Variable,3.5,-,N/A,,Overcast,0,2012-12-07 15:56:00
11:56 AM,55.0,44.1,67,30.09,10.0,Calm,Calm,-,N/A,,Overcast,0,2012-12-07 16:56:00
12:56 PM,55.9,45.0,67,30.05,10.0,NW,3.5,-,N/A,,Overcast,310,2012-12-07 17:56:00
1:56 PM,57.0,46.0,67,30.03,10.0,NW,6.9,-,N/A,,Overcast,310,2012-12-07 18:56:00
2:56 PM,57.0,46.9,69,30.02,10.0,NNE,4.6,-,N/A,,Overcast,20,2012-12-07 19:56:00
3:56 PM,57.0,46.9,69,30.01,10.0,North,3.5,-,N/A,,Overcast,360,2012-12-07 20:56:00
4:56 PM,55.9,48.0,75,30.02,10.0,Calm,Calm,-,N/A,,Overcast,0,2012-12-07 21:56:00
5:56 PM,55.0,48.9,80,30.03,10.0,NW,4.6,-,N/A,,Overcast,320,2012-12-07 22:56:00
6:56 PM,54.0,50.0,86,30.04,7.0,NNW,3.5,-,N/A,,Overcast,330,2012-12-07 23:56:00
7:56 PM,53.1,50.0,89,30.03,6.0,Calm,Calm,-,N/A,,Overcast,0,2012-12-08 00:56:00
8:56 PM,53.1,51.1,93,30.03,5.0,Calm,Calm,-,N/A,,Overcast,0,2012-12-08 01:56:00
9:56 PM,53.1,51.1,93,30.03,5.0,Calm,Calm,-,N/A,,Overcast,0,2012-12-08 02:56:00
9:59 PM,53.6,51.8,94,30.03,1.8,Calm,Calm,-,N/A,,Overcast,0,2012-12-08 02:59:00
10:30 PM,53.6,51.8,94,30.03,0.8,Calm,Calm,-,N/A,,Overcast,0,2012-12-08 03:30:00
10:56 PM,52.0,51.1,97,30.03,0.5,Calm,Calm,-,N/A,,Overcast,0,2012-12-08 03:56:00
11:56 PM,52.0,50.0,93,30.04,0.5,West,3.5,-,N/A,Fog,Fog,270,2012-12-08 04:56:00